This is the latest recevied weather packets stored in our database for station/object DG1ROH. If no packets are shown the sender has not sent any weather packets the latest 10 day(s).
| Time | Temp. | Humidity | Pressure | Rain* | Wind** | Luminosity | Snow |
|---|---|---|---|---|---|---|---|
| 1777360047 | 7.78° C | 55% | 1026 hPa | 0 mm | - | 30 W/m² | - |
| 1777359927 | 7.22° C | 54% | 1026.1 hPa | 0 mm | - | 30 W/m² | - |
| 1777359807 | 7.22° C | 58% | 1026.2 hPa | 0 mm | - | 30 W/m² | - |
| 1777359687 | 7.22° C | 58% | 1026.1 hPa | 0 mm | - | 30 W/m² | - |
| 1777359566 | 7.22° C | 58% | 1026.2 hPa | 0 mm | - | 28 W/m² | - |
| 1777359446 | 7.22° C | 58% | 1026.1 hPa | 0 mm | - | 28 W/m² | - |
| 1777359326 | 7.22° C | 57% | 1026.2 hPa | 0 mm | - | 33 W/m² | - |
| 1777359205 | 6.67° C | 58% | 1026.1 hPa | 0 mm | - | 32 W/m² | - |
| 1777359085 | 6.67° C | 59% | 1026.2 hPa | 0 mm | - | 35 W/m² | - |
| 1777358963 | 6.67° C | 60% | 1026 hPa | 0 mm | - | 28 W/m² | - |
| 1777358841 | 6.67° C | 60% | 1026.2 hPa | 0 mm | - | 28 W/m² | - |
| 1777358720 | 6.67° C | 61% | 1026.1 hPa | 0 mm | - | 26 W/m² | - |
| 1777358598 | 6.67° C | 60% | 1026.1 hPa | 0 mm | - | 26 W/m² | - |
| 1777358479 | 6.67° C | 61% | 1026.1 hPa | 0 mm | - | 26 W/m² | - |
| 1777358360 | 6.11° C | 61% | 1026 hPa | 0 mm | - | 26 W/m² | - |
| 1777358238 | 6.11° C | 60% | 1026.1 hPa | 0 mm | - | 26 W/m² | - |
| 1777358117 | 6.11° C | 61% | 1026.1 hPa | 0 mm | - | 26 W/m² | - |
| 1777357996 | 6.11° C | 61% | 1026 hPa | 0 mm | - | 26 W/m² | - |
| 1777357875 | 6.11° C | 62% | 1026 hPa | 0 mm | - | 26 W/m² | - |
| 1777357754 | 6.11° C | 62% | 1026 hPa | 0 mm | - | 25 W/m² | - |
| 1777357635 | 6.11° C | 63% | 1026 hPa | 0 mm | - | 25 W/m² | - |
| 1777357514 | 5.56° C | 62% | 1025.9 hPa | 0 mm | - | 25 W/m² | - |
| 1777357397 | 5.56° C | 64% | 1025.9 hPa | 0 mm | - | 25 W/m² | - |
| 1777357272 | 5.56° C | 64% | 1026 hPa | 0 mm | - | 25 W/m² | - |
| 1777357153 | 5.56° C | 64% | 1025.9 hPa | 0 mm | - | 25 W/m² | - |
* Rain latest hour (hover to see other rain measurements)
** Current wind speed in m/s (hover to see current wind gust speed)